Location: Austin
(30.3000°N, 97.7500°W)
Time: 05:42:11
(UTC-06:00)

Aurora 2 Rocket - Pass Details

Date: 03 March 2026
Orbit: 385 x 1535 km, 25.0° (Epoch: 5 March)

Event Time Altitude Azimuth Distance (km) Brightness Sun altitude
Rises 19:17:18 0° 246° (WSW) 4,594 8.4 -10.7°
Reaches altitude 10° 19:20:46 10° 242° (WSW) 3,521 7.5 -11.4°
Maximum altitude 19:29:21 49° 171° (S) 1,517 4.4 -13.3°
Enters shadow 19:34:26 19° 104° (ESE) 2,282 4.8 -14.4°
